Theta_e
313 313 311 310 309 309 309 309 308 307 307 307 307 307 307 306 306 306 306 307 308 312 312 313 316 316 316 316 315 316 317 318 316 315 313 310 309 310 310 311 312 311 310 313 314 314 315 315 317 316 316 318 319 319 321 321 319 319 323 321 317 317 317 316 318 317 316 318 317 316 315 314 314 314 313 313 313 313 314 315 314 314 313 313 312 312 313 313
313 313 312 310 310 310 310 309 308 308 308 308 307 307 307 306 307 306 307 307 308 311 312 314 317 316 316 316 315 315 316 319 318 316 314 311 311 311 312 313 314 313 310 313 314 313 315 315 316 316 316 319 319 319 320 320 318 319 323 320 318 318 317 316 317 316 316 317 316 316 315 314 314 313 313 313 314 315 314 314 313 312 312 312 311 312 312 311
314 313 312 311 310 311 311 310 310 309 309 309 308 307 307 307 307 307 307 307 308 311 312 315 317 316 317 316 316 314 316 321 319 316 314 314 314 312 312 314 316 313 310 311 312 312 313 314 315 316 317 318 319 318 318 319 318 319 320 320 319 317 316 316 316 316 316 315 315 315 315 314 313 312 312 313 314 315 314 313 312 311 311 311 311 313 311 309
314 313 312 311 311 312 312 311 311 311 310 309 309 308 308 307 308 307 307 307 309 311 312 316 317 316 316 316 316 315 319 323 319 315 314 315 315 314 313 314 315 313 310 311 312 312 313 315 316 316 317 318 319 318 318 318 318 319 317 318 317 315 316 315 315 315 314 314 314 314 314 314 313 312 312 313 314 314 313 312 311 311 310 310 311 311 309 308
315 313 312 312 312 313 313 312 311 311 311 310 310 309 308 308 308 308 308 308 309 311 312 316 317 315 316 316 316 317 321 322 318 316 314 314 315 316 315 315 315 313 310 312 313 314 315 316 316 317 318 317 318 319 318 316 316 317 317 317 316 315 316 315 314 314 313 313 313 313 314 313 312 313 312 312 314 314 312 312 311 310 310 310 310 309 308 307
315 314 313 312 312 313 313 313 312 312 312 311 310 310 309 309 309 308 308 308 310 312 312 316 316 315 316 316 316 319 322 320 317 315 313 313 315 315 316 315 315 314 312 313 315 316 316 316 316 317 317 316 317 317 317 316 314 316 317 316 315 315 315 314 313 313 312 312 313 314 313 312 313 313 312 312 313 313 312 312 310 310 311 310 308 307 306 305
315 314 313 313 313 314 314 313 312 312 312 312 311 311 310 310 309 309 309 309 311 312 313 316 316 316 316 317 321 322 321 319 316 314 313 314 315 315 315 314 314 315 314 315 316 316 316 316 316 316 316 316 317 316 316 316 314 315 316 316 314 314 314 313 313 312 312 312 312 313 312 312 313 313 312 312 313 312 312 312 311 311 310 308 307 306 304 304
316 315 313 313 313 314 314 313 313 312 312 312 312 311 310 311 310 309 309 309 312 314 315 316 316 317 316 318 324 322 319 318 315 313 313 314 315 314 314 314 314 314 315 315 315 315 316 316 315 315 316 317 316 315 316 315 315 316 316 315 314 313 313 312 312 312 312 312 312 312 312 313 313 312 312 312 313 312 312 311 311 310 308 307 305 304 303 303
316 315 314 313 313 314 314 313 313 312 312 312 313 311 311 312 311 310 309 310 312 316 316 316 317 317 316 319 323 321 319 317 314 313 313 313 314 313 313 313 313 314 315 315 315 316 317 316 316 315 315 317 315 314 315 314 315 315 315 314 314 314 313 312 312 312 311 311 312 312 312 313 312 311 312 313 312 312 311 311 310 308 306 306 304 303 302 302
316 316 314 313 313 314 314 313 313 313 313 313 313 312 312 313 312 310 309 310 313 316 317 316 317 316 317 321 322 320 317 314 314 314 312 312 314 312 312 312 312 315 315 315 316 315 315 316 316 315 315 316 315 314 315 314 314 313 313 313 313 314 312 312 312 311 311 311 312 312 312 313 312 312 312 313 312 311 311 310 308 307 305 304 303 302 302 301
316 316 315 313 313 314 314 313 313 313 313 313 313 313 313 314 312 310 310 310 313 317 318 316 316 317 319 320 320 320 316 313 314 313 311 312 313 312 311 311 312 314 315 316 316 315 315 315 315 314 315 315 313 315 315 313 313 312 312 312 313 313 312 312 312 311 312 311 311 311 312 313 312 312 313 313 312 310 310 309 308 306 305 304 303 302 302 302
317 316 315 314 313 313 314 313 313 313 313 313 314 314 314 315 313 310 309 311 314 318 318 317 316 317 320 319 318 317 314 313 314 313 311 311 311 312 310 311 311 312 314 316 317 315 314 314 314 314 314 314 314 315 314 311 311 311 311 313 314 313 312 312 312 312 312 311 311 312 312 313 313 313 313 313 311 310 310 308 307 306 305 304 303 302 301 301
318 317 316 314 313 313 313 313 313 313 313 313 313 314 315 316 313 310 310 311 314 318 318 317 315 316 320 319 315 314 313 313 313 314 312 311 312 313 310 310 311 311 312 314 315 313 312 312 313 314 313 313 314 314 312 310 311 313 312 313 315 314 312 313 313 312 312 311 311 312 311 312 314 314 313 313 311 310 309 307 306 305 304 303 302 302 301 301
318 317 316 314 313 312 313 313 313 313 313 313 313 314 316 317 314 310 310 311 315 318 318 316 315 317 319 318 314 313 313 313 314 314 312 311 312 315 313 310 310 310 311 313 312 310 310 311 312 313 312 312 313 312 312 312 312 314 313 314 316 314 313 314 313 313 313 311 312 312 310 311 313 313 312 312 311 309 308 306 306 305 303 302 302 301 301 300
319 318 316 315 313 312 312 312 312 313 313 312 313 314 316 316 314 312 311 312 316 317 316 316 317 319 319 316 314 314 313 314 315 313 311 310 312 315 314 311 311 311 310 311 311 309 309 311 312 313 312 312 312 313 315 315 314 315 313 313 316 314 313 314 313 313 313 312 312 312 309 310 312 312 312 311 309 308 306 305 304 303 302 302 301 301 300 300
320 318 316 315 313 312 312 312 312 312 313 313 312 315 316 314 314 314 312 313 317 317 317 319 317 318 320 317 314 314 315 316 314 311 310 310 310 313 312 310 312 311 311 311 310 309 310 311 313 313 313 312 313 314 315 313 314 316 314 312 314 314 313 313 313 312 312 312 312 311 311 311 312 311 310 309 308 306 305 304 303 302 302 301 301 300 300 300
319 318 317 315 314 313 312 311 311 312 313 311 311 315 316 314 315 314 312 315 318 316 317 319 317 316 318 316 315 315 316 315 313 311 311 310 309 311 310 312 313 312 312 311 310 311 311 311 313 313 314 313 314 314 313 311 313 315 314 312 313 313 312 312 312 313 312 311 310 311 312 312 311 310 309 308 306 305 304 303 302 301 301 301 301 300 299 299
319 318 316 315 314 313 312 311 311 310 311 311 312 315 314 314 316 313 313 317 319 319 318 318 319 320 318 315 316 316 315 315 312 311 311 310 309 310 310 311 312 312 312 313 312 313 312 311 313 314 315 314 314 313 312 312 314 313 313 312 312 312 312 311 312 313 311 311 310 311 311 310 309 308 308 307 305 304 303 302 301 301 300 300 300 299 297 297
318 317 316 315 314 313 312 311 310 308 308 310 312 315 313 316 319 315 315 318 320 322 321 319 319 321 319 315 316 315 313 313 312 312 312 310 309 310 310 310 311 312 313 315 315 313 311 311 313 315 314 312 312 313 312 313 312 311 312 312 313 313 312 312 313 312 310 310 310 309 309 308 308 308 307 306 305 304 302 302 301 300 300 300 299 298 296 296
318 316 315 314 314 312 312 311 309 307 306 307 310 314 313 315 320 318 316 316 318 319 319 318 316 317 317 315 316 314 312 312 312 313 312 309 309 311 311 311 312 314 315 315 314 312 310 312 314 314 311 310 311 312 311 310 310 311 312 313 313 313 312 312 313 312 309 309 309 308 308 307 307 307 306 305 304 303 301 301 300 300 300 299 298 297 296 295
318 316 315 314 313 312 311 310 308 306 305 305 307 311 311 312 317 317 313 314 316 315 316 316 314 315 316 315 315 313 312 313 312 313 311 309 310 311 312 312 313 316 316 314 313 313 312 313 314 311 309 309 310 310 310 310 311 311 312 313 312 312 312 312 313 311 309 308 308 308 307 307 307 306 304 303 303 301 300 300 299 299 299 298 296 296 295 295
318 316 314 313 313 312 311 309 307 306 305 306 309 314 313 311 313 311 310 316 318 314 315 314 313 314 314 314 313 310 311 313 312 313 310 309 312 312 312 312 313 316 315 313 313 314 314 313 311 309 309 310 310 310 310 311 311 311 312 313 312 312 312 312 312 310 308 307 308 308 307 307 306 304 302 302 300 300 299 299 299 298 297 296 295 295 295 295
318 315 313 313 312 311 310 307 307 306 305 306 311 315 312 309 311 309 310 318 319 315 314 315 315 315 314 314 311 309 312 312 311 312 309 309 312 311 312 313 313 314 314 313 313 312 313 312 309 308 309 310 310 310 310 311 311 312 313 313 312 313 311 310 310 309 307 307 308 308 307 307 305 302 300 299 298 298 298 299 299 298 296 296 295 295 295 294
318 314 313 313 312 311 309 307 307 305 305 307 308 309 308 308 311 311 314 319 319 317 314 314 315 316 315 312 310 310 312 310 310 310 308 309 310 310 311 310 311 315 314 312 310 310 311 310 309 310 310 310 311 311 311 312 310 311 315 314 313 311 308 308 308 307 307 308 308 307 306 307 306 303 300 299 298 298 297 298 297 297 296 296 295 295 295 294
318 314 313 312 311 311 307 309 309 303 308 312 307 305 307 310 311 310 314 319 319 318 316 315 317 317 314 311 311 311 310 309 309 308 307 308 308 309 310 308 310 315 315 311 309 309 310 308 309 311 311 312 313 311 312 312 309 311 314 311 309 307 306 307 307 307 307 308 308 306 305 307 307 305 301 299 298 297 297 297 296 296 296 295 295 294 295 295
317 314 313 312 311 310 309 314 311 304 311 317 308 304 306 310 310 309 314 318 319 320 318 317 319 317 312 312 311 310 311 311 308 306 306 306 307 308 310 310 309 311 312 309 309 310 308 307 309 312 312 313 313 311 312 312 310 310 310 307 306 306 306 307 307 307 307 307 307 306 306 306 306 306 304 300 299 297 297 297 296 295 295 294 294 294 294 294
318 314 312 311 309 309 310 313 309 305 313 316 307 303 307 310 309 310 317 319 319 320 319 317 317 315 313 312 310 310 314 312 306 306 305 306 307 307 310 313 311 309 308 308 310 310 309 309 311 312 312 312 311 311 312 311 311 310 307 305 305 305 306 307 307 308 307 306 306 306 307 306 306 307 304 301 299 298 297 296 296 295 294 294 294 294 294 294
318 314 311 309 307 306 307 308 309 311 311 309 305 305 310 310 309 314 320 319 319 319 319 316 313 312 312 310 308 310 311 309 310 308 304 304 306 306 309 311 310 309 307 307 311 311 309 311 312 311 311 310 310 310 309 310 311 308 305 304 305 306 307 308 308 308 306 306 306 306 307 307 307 308 304 302 301 299 297 296 295 295 294 294 294 294 294 294
317 315 310 307 305 305 305 305 309 312 309 305 306 308 309 309 311 317 320 319 319 318 316 315 313 312 313 310 309 310 309 310 312 308 304 305 307 306 308 308 307 308 307 306 309 310 309 308 308 309 310 310 309 307 306 307 308 306 305 306 308 308 309 309 308 306 304 305 306 306 307 307 307 307 305 303 301 298 296 295 295 294 294 294 294 294 294 293
317 315 309 305 307 307 307 306 306 307 306 304 307 309 308 310 315 319 321 319 320 317 314 314 315 314 314 314 313 311 309 310 309 307 305 306 306 306 306 306 306 308 309 309 308 309 308 306 307 309 309 309 307 305 305 305 304 305 306 307 307 308 308 307 305 304 304 306 307 307 307 306 304 304 304 302 299 296 295 295 294 294 294 294 294 293 293 293
317 316 308 303 305 305 307 311 308 305 305 304 307 309 310 316 317 318 321 318 317 317 315 314 315 314 314 315 317 313 311 311 308 308 309 307 307 308 307 308 309 309 310 311 310 310 309 308 309 308 306 308 308 307 307 305 305 307 307 305 306 306 306 305 304 304 304 307 306 304 304 302 301 302 300 297 296 295 294 294 294 294 294 293 293 293 293 293
317 315 308 302 302 302 307 312 308 304 304 304 308 310 313 319 319 318 319 316 317 319 318 317 317 315 314 314 316 315 314 313 310 309 311 310 310 310 311 311 312 313 315 314 312 312 311 310 309 307 306 307 309 310 309 307 306 306 305 304 305 306 305 306 305 305 305 307 304 301 301 299 300 301 299 296 295 295 294 294 294 293 293 293 293 293 293 293
318 315 308 303 302 302 304 305 304 303 303 305 309 312 314 320 322 321 320 318 319 320 319 318 316 314 315 316 317 316 313 314 312 309 309 309 310 311 312 310 310 313 315 314 312 312 312 311 308 309 307 305 307 309 309 307 305 303 303 303 304 304 304 305 305 305 306 305 302 300 300 299 300 300 298 296 295 295 294 294 294 293 293 293 293 293 293 293
318 314 308 303 303 303 302 302 303 303 304 307 311 312 318 322 322 323 324 321 318 316 316 316 315 314 314 316 316 314 314 315 311 308 308 309 310 311 312 309 307 309 310 310 310 310 313 313 310 309 307 304 305 305 305 305 303 302 302 302 302 302 302 303 303 303 304 303 301 300 299 300 301 300 297 296 295 295 295 294 294 293 293 293 293 293 293 292
317 314 308 305 305 304 302 304 305 304 306 311 310 312 319 321 320 321 322 321 318 315 313 313 314 316 316 316 314 310 313 315 310 308 309 310 311 312 312 310 308 308 310 310 311 310 311 313 308 304 302 302 302 303 302 303 303 302 301 301 301 301 301 301 301 302 301 299 300 300 300 301 300 297 296 295 295 295 294 294 293 293 293 293 293 292 292 292
315 312 309 308 307 306 304 305 307 307 309 310 309 314 317 317 319 320 318 317 317 317 316 314 315 319 318 318 315 310 311 312 310 309 310 310 311 312 311 311 308 308 309 310 311 310 310 311 306 302 301 299 299 301 301 303 303 301 300 301 300 299 299 298 299 301 300 299 300 300 300 300 299 297 296 295 295 295 294 293 292 293 293 292 292 292 292 292
313 310 309 310 308 306 305 307 307 308 311 307 310 315 316 316 318 318 317 314 313 315 317 317 317 319 318 318 318 313 310 311 310 311 312 312 312 312 310 309 308 308 308 308 310 309 309 310 306 304 303 298 297 299 299 299 301 301 299 299 298 297 296 296 297 299 299 300 301 300 299 299 298 297 296 295 295 294 293 293 292 292 293 292 292 292 292 292
311 308 310 311 309 306 305 308 309 310 310 306 311 314 315 317 315 314 316 313 312 315 316 317 318 318 318 318 319 314 311 314 313 310 313 314 313 311 309 308 307 306 305 304 307 307 306 308 307 303 302 299 297 300 300 298 298 299 298 297 296 297 297 297 297 297 298 299 300 300 299 298 298 298 296 295 295 294 293 292 292 292 292 292 292 292 292 292
307 308 312 312 309 307 307 309 310 311 307 306 311 314 314 315 313 313 314 313 313 315 315 316 317 317 318 318 318 314 312 315 315 311 313 315 314 310 308 309 307 304 302 302 305 306 304 306 306 301 300 299 299 300 301 300 297 296 297 296 296 296 296 297 297 296 297 298 298 299 298 297 298 297 296 295 294 293 293 292 292 292 292 292 291 291 292 292
306 310 314 311 307 307 307 310 311 308 306 308 311 313 315 314 312 310 310 312 314 314 314 316 316 316 318 317 317 316 314 315 314 313 314 313 313 311 307 308 307 302 301 301 303 304 303 304 305 301 298 299 300 301 301 301 298 297 296 296 296 295 295 296 296 295 295 296 296 297 297 297 296 295 294 294 293 293 292 292 292 292 292 291 291 291 291 291
307 313 314 308 306 308 309 311 311 307 307 309 311 313 314 313 311 310 308 311 314 312 312 314 315 316 316 316 317 316 315 314 313 313 313 311 313 313 308 306 305 302 301 301 302 303 302 303 304 301 299 300 301 299 298 299 299 298 297 296 296 296 296 296 296 295 294 295 295 295 295 296 295 295 294 294 293 293 292 292 292 292 291 291 291 291 291 291
309 316 314 307 307 309 310 310 310 310 309 310 312 312 312 310 310 311 309 310 312 312 310 311 312 314 315 315 316 315 315 314 313 312 312 312 313 312 307 305 304 302 301 301 302 303 301 301 303 303 300 299 298 296 294 296 297 297 297 297 296 296 296 296 296 296 294 294 294 294 294 295 295 295 294 294 294 293 292 292 292 291 291 291 291 291 291 290
310 314 311 306 308 310 312 311 312 312 310 310 312 312 312 311 310 311 311 309 310 310 311 311 311 312 313 313 314 315 315 314 314 312 311 313 310 303 301 303 302 301 301 301 301 301 301 300 301 302 300 296 294 294 294 295 295 296 296 296 295 295 295 295 295 295 295 294 294 294 294 295 295 295 295 294 294 293 292 292 291 291 291 291 291 291 290 290
310 311 309 307 308 310 312 313 314 312 309 310 311 310 311 312 311 312 311 310 310 311 311 312 311 311 312 313 313 314 314 314 315 313 311 312 306 297 297 301 300 300 301 301 301 301 302 301 300 301 301 299 296 295 295 294 294 294 295 295 295 295 295 295 294 294 294 294 293 293 294 294 294 295 295 295 294 293 292 292 291 291 291 291 291 290 290 289
311 312 310 307 308 309 312 313 314 315 313 312 312 311 312 311 311 311 311 311 311 311 312 313 312 311 311 312 313 313 313 314 316 314 310 308 302 295 296 298 298 299 300 300 302 302 301 301 300 301 303 304 302 300 297 296 294 294 294 295 295 295 295 295 294 294 294 294 294 293 293 294 294 295 295 294 293 292 292 292 291 291 291 291 290 290 289 289
315 316 311 307 307 309 310 310 312 314 315 315 315 314 313 313 312 311 311 311 311 311 312 312 311 311 311 311 312 312 311 312 314 312 308 304 299 296 296 297 297 298 298 299 301 300 299 299 299 301 303 304 304 300 297 296 295 294 295 294 295 295 296 295 294 294 294 294 294 294 294 294 294 294 294 294 293 292 292 291 291 291 291 290 290 289 289 288
317 318 314 310 310 310 310 310 311 312 314 316 317 317 316 315 314 313 312 312 311 312 312 312 311 311 311 311 312 312 311 310 311 310 307 304 299 296 296 296 296 297 297 299 299 297 297 297 298 299 300 300 300 298 296 295 295 294 294 294 294 295 296 296 295 293 293 293 294 294 294 294 294 294 294 293 292 292 291 291 291 291 290 290 290 289 288 288
315 317 314 313 315 315 312 311 311 312 314 315 315 316 317 316 316 315 313 311 311 311 312 312 311 311 312 312 312 313 311 309 309 309 307 303 299 296 296 297 297 296 297 297 297 296 296 297 298 299 299 298 298 297 297 296 295 294 294 294 293 294 295 296 295 293 293 294 293 293 292 293 294 293 293 292 292 291 291 291 291 291 290 290 289 288 288 287
314 315 313 313 316 317 315 313 311 312 314 314 315 316 316 317 317 316 314 311 310 310 310 313 313 311 311 312 312 313 312 310 310 310 306 303 300 298 298 298 297 297 296 296 297 296 296 297 298 297 298 297 297 297 296 295 295 295 294 294 294 294 294 295 294 293 293 293 293 292 292 292 293 293 292 292 292 291 291 291 291 290 290 289 288 288 287 286
314 315 313 311 313 316 316 315 313 313 314 314 315 315 315 316 317 316 314 313 312 311 310 312 313 312 311 311 312 313 312 312 314 312 306 303 302 300 300 301 299 297 296 296 296 296 296 298 297 296 297 298 297 296 296 295 295 295 295 295 295 294 294 294 294 294 294 293 293 292 292 293 293 293 293 292 291 291 291 291 290 290 289 289 288 287 286 285
314 314 314 313 313 314 315 315 314 315 315 314 315 315 315 315 315 316 316 314 314 313 311 310 312 312 311 310 310 311 312 312 313 310 305 304 304 303 302 301 299 298 297 296 296 296 296 297 297 296 298 299 297 297 296 295 294 294 295 295 294 294 294 294 293 294 294 294 293 293 293 293 293 293 292 291 291 291 291 290 290 289 289 288 287 287 285 284
313 313 312 314 315 315 314 315 315 315 316 316 315 315 315 315 314 315 316 315 314 314 312 311 311 311 311 310 309 309 310 308 305 304 303 302 302 303 302 300 300 299 297 296 296 296 296 297 297 297 298 298 296 295 294 293 294 295 295 294 294 294 294 293 293 293 294 294 294 293 293 292 292 292 291 291 291 291 290 290 290 289 288 288 287 286 284 283
Wind_Speed
19 20 22 23 25 26 27 28 30 30 30 29 30 30 31 31 32 31 29 26 23 20 21 19 13 7 2 5 10 12 14 13 14 19 16 10 12 13 13 13 14 15 12 9 8 7 5 4 3 4 5 4 2 0 1 1 1 3 3 3 3 1 3 4 3 4 6 6 5 4 4 6 8 6 5 5 4 6 2 6 10 8 8 13 16 20 20 21
19 21 22 24 25 26 27 28 29 29 29 30 30 30 30 31 31 31 29 27 23 21 22 19 13 8 2 6 10 8 8 6 11 18 13 12 13 12 12 13 14 15 12 8 7 8 7 6 7 8 6 3 1 1 1 1 1 3 3 4 1 5 5 4 3 4 7 9 10 9 5 4 6 7 7 8 6 1 5 10 13 13 14 15 17 19 20 25
19 21 22 24 25 26 26 27 29 29 30 30 30 29 29 30 31 31 30 27 23 21 23 19 12 8 3 5 11 8 3 3 5 12 10 14 13 12 13 13 15 14 11 8 7 6 6 6 7 7 6 4 1 1 1 1 1 1 3 4 3 6 4 4 2 2 7 10 12 10 7 6 2 5 6 7 8 5 10 12 13 14 15 16 17 18 22 24
20 21 22 24 25 26 26 27 28 29 30 29 30 29 29 30 30 31 30 28 23 21 23 18 11 8 3 3 10 8 3 4 3 6 10 14 15 14 13 14 15 13 10 8 7 5 5 6 6 5 5 4 1 2 2 1 2 1 3 2 6 4 2 5 2 3 7 10 11 10 10 6 2 3 5 6 6 5 11 12 13 14 15 16 15 18 21 22
19 21 22 24 25 26 26 27 28 29 29 29 30 29 29 30 31 31 30 28 22 21 24 16 9 9 4 2 7 8 3 3 2 5 11 15 16 15 13 13 13 11 9 7 7 6 7 6 6 4 4 4 1 2 1 3 2 2 2 3 7 3 2 4 2 3 7 10 9 9 8 6 4 4 2 6 5 7 9 11 12 13 13 14 15 18 19 20
19 21 22 23 25 26 26 27 28 29 28 29 30 29 29 30 31 31 30 27 22 22 23 14 8 10 9 8 7 5 2 1 3 8 13 16 17 14 12 11 12 11 9 8 9 7 6 6 5 3 3 4 2 2 2 3 1 3 1 4 5 4 3 2 1 2 7 10 9 8 7 7 8 3 3 4 6 9 10 9 10 11 11 15 18 18 18 18
18 20 22 23 25 25 26 27 28 29 28 29 29 29 29 30 32 31 30 27 22 24 23 11 5 9 11 9 6 3 2 3 5 11 14 15 14 12 10 10 11 10 8 8 8 7 6 6 5 4 4 3 0 1 3 2 3 4 1 5 5 3 2 1 2 4 7 9 9 9 9 8 6 3 2 5 9 10 10 7 8 11 13 17 18 17 18 18
18 20 22 23 25 25 26 26 28 29 28 28 28 29 30 30 32 30 29 25 22 25 20 9 4 3 3 1 1 2 4 3 7 12 14 14 11 10 10 9 9 8 5 6 7 7 6 5 5 3 4 0 1 3 3 5 4 5 3 4 3 0 1 1 2 4 5 6 8 9 12 5 2 2 2 6 8 10 11 9 10 12 14 16 16 17 17 17
17 20 22 23 25 25 26 26 28 29 28 28 28 29 29 30 31 30 28 24 23 25 16 8 5 1 3 3 4 1 3 3 7 11 14 13 9 9 10 8 9 7 4 5 6 7 5 3 4 2 4 1 1 4 2 4 1 2 5 5 3 2 2 2 2 1 1 3 7 10 12 3 4 2 3 7 8 11 11 11 12 13 14 14 15 16 16 17
17 19 22 23 24 25 26 27 28 29 28 28 27 28 28 29 30 29 27 22 23 23 12 7 6 1 3 4 5 1 2 3 7 11 14 13 8 8 10 8 8 7 5 5 5 7 4 3 3 2 4 2 2 3 2 2 1 2 7 7 8 3 3 3 4 3 3 3 8 12 14 5 4 5 3 6 9 11 9 12 13 13 14 14 14 14 15 17
17 19 21 22 24 24 26 27 28 29 28 28 27 26 27 29 29 28 25 22 22 20 9 6 7 5 1 5 4 1 3 3 7 11 14 12 6 6 10 9 8 6 6 4 3 5 4 4 3 2 2 0 2 4 4 1 3 4 7 8 6 6 7 5 6 6 6 2 8 12 14 7 4 4 3 6 10 11 8 13 13 12 12 13 14 13 13 15
17 18 20 22 23 24 25 27 28 28 28 28 26 25 26 28 28 26 23 20 22 19 7 1 3 4 3 2 1 2 2 3 8 12 15 14 8 6 9 9 6 5 5 5 3 3 5 5 4 5 2 2 4 4 2 2 3 4 4 7 2 10 9 5 5 8 6 3 7 10 10 5 6 5 5 7 9 9 8 12 12 12 11 11 12 11 11 15
17 18 20 21 22 24 25 26 28 28 28 27 26 25 24 26 26 24 22 19 21 18 8 5 3 2 4 1 3 1 0 4 8 11 14 14 10 7 8 10 7 4 4 4 4 3 4 4 6 6 3 4 5 2 0 2 4 4 3 4 2 7 8 5 4 7 6 2 6 9 7 2 3 8 5 7 8 6 8 11 10 10 9 9 10 10 11 14
17 18 19 20 22 23 24 26 27 28 28 27 25 23 23 24 23 23 21 18 20 15 8 6 1 3 3 2 1 1 2 4 6 11 13 13 10 7 8 10 7 5 3 2 3 3 3 3 6 6 2 4 4 2 3 4 4 3 3 3 2 1 4 7 4 3 3 1 5 8 5 5 6 4 3 10 6 7 9 10 9 9 8 8 9 9 10 13
17 18 19 20 21 23 24 26 27 28 28 27 25 22 22 22 19 21 19 16 19 12 5 3 3 2 2 3 1 2 4 3 4 11 13 13 11 6 7 10 6 5 4 3 3 3 2 3 5 5 2 3 4 5 6 4 5 3 1 1 0 2 1 6 6 4 3 3 5 8 6 7 8 9 11 8 9 11 11 10 9 9 8 8 8 9 10 11
17 18 18 20 21 22 24 26 27 28 28 27 24 21 21 18 18 20 15 15 18 7 2 2 1 4 3 3 1 0 3 3 5 11 12 13 10 6 9 9 5 5 4 3 3 3 4 5 3 3 3 3 4 6 7 4 4 3 1 3 3 3 3 1 6 6 7 6 6 4 5 6 9 12 10 12 13 12 11 10 9 8 8 9 8 8 10 10
17 18 18 19 20 22 24 26 27 28 28 27 23 21 18 14 18 17 9 15 16 3 4 3 0 3 1 2 1 2 2 3 6 10 11 13 9 6 8 6 4 5 4 5 5 5 4 4 2 1 4 3 4 5 6 5 2 2 4 4 5 5 6 3 3 4 7 7 7 4 4 7 11 11 11 15 12 12 11 9 9 8 7 8 8 9 11 11
18 18 18 19 20 21 23 25 27 29 28 25 23 21 15 13 17 11 6 17 12 3 3 4 1 2 1 2 1 1 4 4 6 8 9 12 9 6 6 5 5 5 6 6 5 2 2 2 3 3 3 1 5 5 5 5 4 6 6 6 7 6 7 7 3 3 6 5 5 4 5 7 12 8 10 11 11 13 10 8 7 7 7 8 8 10 12 12
17 18 18 18 19 20 22 25 27 28 27 25 24 20 12 12 11 3 6 16 7 2 2 2 2 3 1 2 1 5 6 5 6 5 7 11 10 7 6 6 6 5 6 4 2 4 4 3 4 4 4 4 5 4 4 6 6 8 8 7 8 7 7 8 4 6 7 6 3 4 8 8 13 6 9 9 11 12 9 8 6 5 6 7 8 9 12 12
17 17 17 18 18 20 21 24 26 26 25 25 24 17 8 8 6 1 7 11 3 1 6 5 3 4 3 2 3 7 5 4 3 2 6 12 10 6 5 6 6 6 3 4 6 3 2 5 5 2 5 6 5 4 5 6 6 7 8 8 9 10 8 6 3 6 7 4 4 7 10 11 14 3 10 8 10 11 9 8 6 6 6 7 8 10 12 11
16 17 16 17 18 19 20 22 24 23 21 21 19 10 4 6 5 3 7 5 2 2 4 3 2 5 3 2 4 7 3 4 4 1 8 11 6 4 2 3 6 5 3 4 5 2 2 6 2 4 5 5 4 4 5 6 7 7 8 8 9 8 8 8 3 4 5 5 5 6 10 15 10 6 11 7 9 9 7 7 6 7 7 7 9 10 11 10
16 16 16 16 17 18 19 21 21 18 18 19 15 8 3 3 1 1 3 5 1 3 3 2 2 4 1 0 2 4 2 4 4 2 9 11 4 2 4 4 7 7 6 5 5 3 4 4 4 6 4 2 3 4 5 8 8 8 7 7 8 6 8 6 3 4 6 7 5 5 10 13 2 13 10 8 10 8 7 7 6 7 7 7 9 9 10 11
15 15 15 14 16 17 18 19 17 15 17 15 11 7 2 1 2 2 2 6 4 3 3 3 3 2 3 2 1 2 3 3 1 2 10 11 3 2 5 5 7 8 7 5 5 6 7 3 5 3 1 2 5 4 6 9 7 7 6 6 8 6 8 3 1 8 11 5 3 6 9 6 7 12 9 10 10 9 8 8 7 6 7 7 8 9 11 13
14 15 14 14 15 15 17 17 11 11 14 11 9 6 2 2 4 3 1 5 4 1 2 0 1 1 1 2 1 2 2 1 1 3 9 9 4 2 3 3 6 8 5 4 5 8 9 3 4 1 1 3 6 6 7 6 7 7 4 5 7 6 8 8 8 14 9 2 3 7 10 3 8 10 8 9 9 9 7 7 6 5 6 7 9 10 11 12
14 14 13 13 14 14 16 13 7 10 10 6 6 6 3 2 6 3 2 4 3 1 1 1 1 0 1 2 1 2 2 0 1 4 7 7 4 3 2 1 3 8 6 4 6 9 6 2 2 1 2 3 6 8 4 3 7 7 1 3 6 7 9 11 12 13 8 2 5 9 8 5 5 10 10 9 8 8 6 5 5 5 7 9 10 11 11 11
14 13 13 13 13 13 13 5 4 10 6 2 4 5 4 1 6 3 1 3 3 1 2 2 2 2 3 1 1 1 2 1 3 3 3 4 3 3 4 1 1 5 6 4 5 5 1 1 0 1 3 4 6 7 1 2 7 6 3 4 6 7 9 11 12 10 6 8 5 5 5 6 5 8 12 12 8 7 5 5 5 6 9 10 10 10 11 12
13 12 12 12 12 12 8 3 5 8 2 0 5 5 4 1 7 3 1 3 3 1 2 1 0 1 2 2 0 1 2 1 3 1 2 4 2 2 5 5 3 3 2 2 5 2 2 1 1 1 3 5 7 5 2 2 6 4 5 6 7 9 10 11 10 7 6 10 9 5 7 7 8 5 11 13 9 6 3 4 6 8 10 11 11 12 13 14
13 12 12 11 11 10 5 3 6 4 1 3 4 3 3 3 6 2 3 4 2 1 1 1 1 1 2 1 2 3 2 1 2 0 2 3 3 2 5 6 7 5 1 2 6 1 2 1 1 2 4 4 4 2 4 2 4 3 8 7 7 8 10 9 8 8 8 8 8 6 6 6 7 3 10 10 8 3 2 5 7 9 12 12 12 13 14 15
12 12 11 10 10 7 3 3 5 2 3 4 2 2 4 6 3 1 2 3 1 2 1 2 2 2 2 2 4 4 1 1 1 1 2 2 1 1 3 3 4 5 2 5 8 4 2 3 3 2 3 4 2 4 4 3 2 5 7 7 8 8 9 9 7 8 7 6 9 8 8 6 7 3 7 7 6 1 3 5 7 11 12 13 13 14 16 16
12 11 10 10 8 5 4 5 5 4 3 2 0 3 5 4 2 3 3 2 0 1 1 1 2 1 2 4 5 5 4 3 1 0 2 1 0 2 1 1 2 5 5 6 9 6 1 3 0 1 2 3 2 2 2 1 4 7 7 8 8 8 8 8 6 5 5 5 5 4 6 5 6 3 2 3 3 2 4 5 8 11 12 13 14 14 17 16
12 11 10 8 6 4 4 4 5 4 2 2 3 5 3 2 2 4 4 1 1 1 2 3 1 1 3 4 3 3 3 3 3 2 4 2 2 4 2 2 2 3 6 6 6 5 2 3 2 2 1 1 1 2 2 3 5 6 5 6 7 7 6 6 3 1 4 5 0 6 3 4 7 3 2 5 5 4 4 5 8 12 13 14 14 14 16 15
12 11 9 8 5 4 4 4 4 4 4 3 4 3 3 3 4 6 3 1 0 2 2 1 1 1 1 1 3 3 1 2 4 3 3 0 2 4 2 3 2 3 6 4 1 3 3 3 3 3 1 1 2 3 3 5 5 4 4 4 6 6 6 4 3 2 6 4 4 6 3 3 10 7 5 10 7 5 4 6 8 12 14 15 15 15 15 14
12 12 10 8 6 5 8 9 7 5 5 5 2 3 3 4 5 4 4 2 0 1 1 1 2 1 1 1 4 2 1 3 4 2 1 1 3 3 2 2 1 3 6 5 4 5 2 3 5 4 3 2 3 4 3 3 1 1 2 3 4 5 6 7 5 5 6 2 3 1 5 5 9 5 9 12 7 5 5 7 8 12 14 15 15 15 15 15
12 12 11 10 8 8 9 10 9 7 5 4 2 4 5 7 5 1 3 4 0 1 2 2 1 2 4 5 3 2 2 4 3 2 2 3 3 4 3 4 5 4 5 6 6 5 6 3 3 4 2 1 3 1 2 1 1 1 1 1 2 3 4 6 5 6 7 7 5 4 4 5 6 2 10 9 6 4 5 8 10 13 13 13 14 15 15 15
11 11 12 11 10 10 10 10 9 8 5 3 4 6 7 8 4 1 4 3 1 1 2 2 2 3 6 7 3 2 4 3 3 2 4 5 5 5 4 5 8 6 3 4 3 2 7 5 2 2 1 0 2 1 1 1 1 1 2 1 1 1 4 5 7 7 6 9 8 4 4 5 1 6 10 7 4 1 6 10 12 14 14 14 13 14 15 15
9 10 11 10 9 9 10 11 10 8 5 4 5 7 8 7 4 2 2 1 1 1 0 2 5 5 7 5 4 4 3 2 2 2 4 7 8 7 4 3 7 9 6 4 2 1 5 3 5 4 0 2 0 1 0 1 1 2 2 1 2 3 1 5 8 5 2 7 7 4 5 5 1 6 9 7 2 2 7 11 13 15 15 15 13 13 15 15
6 7 8 7 8 9 11 12 10 8 4 5 8 9 7 7 7 5 2 2 0 0 2 5 4 4 5 5 4 6 4 2 4 3 2 4 5 6 7 4 5 10 6 2 2 1 3 4 4 5 2 2 2 2 2 0 2 1 2 1 3 3 0 3 5 3 3 8 6 5 8 8 4 3 7 7 1 6 9 13 14 15 15 14 13 14 16 17
4 4 6 7 9 9 12 12 9 6 4 5 10 11 7 7 8 6 4 4 1 2 4 6 4 4 5 6 4 6 7 2 4 5 4 3 3 5 8 5 4 6 3 1 2 1 1 4 2 2 1 3 1 3 3 2 2 1 0 1 1 2 2 4 3 3 5 7 6 7 9 8 8 3 5 4 4 8 10 14 15 16 15 14 15 16 18 18
4 2 3 6 8 10 14 12 7 5 5 7 10 10 7 8 8 5 5 4 3 4 6 8 7 6 7 7 4 5 7 5 4 4 4 4 4 6 9 5 4 6 4 3 2 0 1 4 2 0 1 2 2 5 6 4 3 3 1 1 1 2 4 4 2 1 4 6 6 9 8 5 4 2 4 1 6 8 11 14 14 15 16 15 16 17 18 19
4 1 2 5 8 11 14 10 5 6 7 8 10 6 2 5 7 6 7 7 5 5 7 8 8 9 9 8 6 4 6 7 7 6 5 5 4 6 10 7 7 8 5 2 1 1 2 4 3 0 1 2 4 4 5 4 4 4 4 4 4 3 2 3 3 2 3 6 6 8 9 4 3 4 1 3 5 7 12 14 13 14 16 16 17 17 17 18
3 2 2 7 11 14 13 7 5 7 7 8 10 7 3 3 5 7 8 7 6 6 6 7 10 10 8 8 7 6 6 6 8 8 6 7 7 6 7 8 10 11 7 2 3 3 3 3 4 2 3 6 4 1 2 3 1 4 5 6 6 6 4 3 5 2 2 5 6 6 11 8 3 2 2 2 3 8 12 14 13 14 16 17 17 18 19 19
3 3 3 9 14 15 11 6 5 4 7 8 6 6 4 3 4 7 7 5 4 6 4 5 10 10 8 9 9 6 6 6 8 8 6 9 10 5 3 7 11 12 7 2 2 1 1 1 4 5 4 4 1 3 3 4 3 3 5 5 5 6 6 6 6 2 2 6 6 6 11 7 3 3 2 2 4 10 12 13 13 14 15 17 18 19 19 19
4 3 3 9 15 13 7 6 5 5 7 5 2 5 5 3 4 7 8 6 4 5 5 6 8 8 9 9 9 9 8 6 8 9 7 9 6 1 2 8 11 9 5 2 2 1 1 1 3 5 2 1 1 1 0 1 2 4 5 6 6 6 8 7 5 2 2 7 6 5 11 6 5 6 5 3 7 12 12 12 14 13 14 17 18 18 18 19
4 2 3 8 13 11 7 7 7 8 8 6 7 9 6 3 6 9 9 10 8 7 7 7 7 8 10 9 10 11 9 5 7 9 7 7 3 3 2 5 6 5 3 1 3 4 3 3 4 4 4 3 3 3 3 4 5 5 6 8 9 9 10 6 3 2 3 8 9 8 11 7 3 5 4 8 12 15 13 12 13 13 14 16 16 17 18 19
3 2 2 6 10 9 6 6 6 8 10 11 13 14 10 6 8 12 11 12 11 9 7 5 6 9 8 6 7 9 9 9 8 4 2 3 2 1 1 2 2 2 2 2 1 3 4 4 5 6 7 7 5 3 3 5 5 5 7 10 12 13 14 8 3 5 7 8 10 11 11 10 7 7 11 13 14 15 14 13 13 13 15 17 15 15 17 17
3 3 2 4 5 8 6 5 5 7 9 10 11 12 15 12 8 10 12 14 14 12 8 3 3 7 6 6 7 9 10 12 8 2 2 3 3 1 1 3 4 2 3 3 2 1 2 3 7 10 10 10 8 4 2 5 5 6 9 13 14 14 14 9 5 8 8 8 11 13 13 15 16 15 15 14 14 14 13 12 13 14 16 17 16 16 17 16
4 4 5 6 3 7 8 6 7 8 9 10 9 8 13 15 10 8 12 11 10 11 9 5 6 8 8 9 9 9 10 10 7 4 4 4 3 2 2 3 2 1 1 1 1 1 2 4 10 14 15 14 11 7 2 6 7 9 9 13 15 14 13 12 11 11 8 8 12 11 11 16 16 14 14 15 15 13 11 12 14 15 16 17 16 18 20 19
5 3 5 8 7 7 8 9 10 12 14 15 12 11 13 14 13 11 10 5 4 8 8 8 14 17 15 12 8 8 8 6 7 8 4 4 4 3 3 1 1 3 2 2 1 1 3 5 7 10 14 15 13 11 8 7 9 10 11 14 16 16 16 16 18 16 12 12 13 11 13 16 15 13 15 15 12 10 10 13 15 16 17 17 17 19 20 19
5 2 2 6 8 9 9 11 14 18 21 18 15 16 16 17 18 14 8 5 4 10 12 13 14 16 18 16 11 11 9 6 9 10 6 5 5 6 3 2 4 5 5 4 2 2 2 4 5 8 12 13 12 12 10 10 12 13 14 17 16 17 19 19 19 20 19 20 19 17 20 20 15 15 16 12 8 8 10 12 15 17 18 18 18 19 19 19
5 2 3 3 6 8 7 9 13 14 17 16 16 16 14 19 23 16 8 9 9 9 14 19 16 12 16 17 15 18 17 13 13 9 9 9 6 6 5 3 5 7 6 5 3 3 3 2 2 3 7 9 10 11 12 13 15 17 19 19 17 18 20 19 19 19 18 20 21 20 21 18 13 13 11 7 7 9 10 13 16 16 17 18 18 18 18 19
11 5 6 4 5 9 9 8 10 10 13 15 16 13 13 20 24 16 9 14 17 11 13 20 19 11 11 15 19 23 19 11 7 6 12 11 6 6 6 4 7 9 7 6 4 3 5 3 3 2 5 7 6 9 13 12 13 20 22 20 18 18 17 16 17 17 16 17 19 18 15 12 9 8 8 8 9 11 12 14 15 14 16 18 17 16 17 18
16 7 7 7 6 9 10 10 12 13 12 12 14 15 16 18 17 14 11 12 17 16 13 15 15 11 11 16 19 16 7 6 6 5 7 5 3 5 6 6 9 9 8 7 5 4 5 4 2 3 3 4 1 3 5 6 9 14 14 16 20 20 18 16 16 17 18 16 13 12 10 9 8 8 9 9 10 11 12 12 12 13 15 16 14 14 16 17
Wind_Direction
10 8 7 6 6 7 7 7 6 5 5 6 5 5 3 2 2 3 6 6 6 7 5 4 4 14 35 141 130 107 89 82 65 55 51 20 349 349 349 351 357 359 359 360 351 326 288 266 318 325 268 233 233 174 151 83 351 267 251 259 279 62 70 53 36 6 319 307 340 349 17 346 332 351 349 333 239 238 291 45 35 27 14 4 2 351 2 30
8 6 5 4 4 5 5 5 3 3 4 5 4 3 2 1 359 1 4 5 6 5 5 3 1 9 19 169 169 138 99 103 64 55 37 0 354 353 350 353 356 355 356 356 351 345 336 334 340 324 292 260 166 150 186 139 290 267 282 279 351 62 61 47 47 9 318 308 322 329 359 344 333 344 345 345 334 351 41 34 21 5 359 359 358 358 23 41
5 4 3 2 2 2 2 2 0 1 2 3 3 2 2 0 358 359 2 4 5 5 5 4 4 10 25 163 186 184 152 201 55 45 11 358 359 352 348 348 349 349 352 348 342 342 333 324 319 319 306 281 185 150 244 178 272 280 299 286 72 57 73 77 49 349 314 306 312 321 328 320 356 344 333 332 322 26 49 26 6 356 354 350 355 14 37 42
3 2 1 0 0 360 0 359 358 359 360 1 1 1 1 360 358 358 0 3 5 6 6 6 10 12 25 152 185 186 209 233 54 18 343 354 353 346 341 341 347 346 346 337 328 320 306 297 293 312 302 283 163 198 258 95 359 327 294 336 77 41 104 103 34 329 305 299 308 315 311 321 49 315 322 334 318 52 48 19 4 353 349 350 9 36 43 40
0 359 359 358 358 358 358 356 356 356 357 359 360 0 359 359 358 358 359 1 4 7 6 10 22 24 35 122 169 171 217 257 49 346 332 344 343 341 335 340 349 346 345 326 316 313 303 300 292 291 270 287 313 243 273 78 356 268 258 51 78 19 59 94 7 321 301 297 299 301 311 338 334 292 343 350 358 61 28 8 7 353 349 7 38 49 44 41
358 357 357 356 356 356 356 354 353 353 355 357 358 359 358 359 358 357 357 359 5 6 4 12 42 50 64 87 123 159 247 318 12 333 333 336 334 339 339 347 353 351 345 316 311 318 317 316 301 305 286 288 311 297 3 81 312 272 215 86 75 24 49 72 322 280 287 291 291 307 336 324 303 327 48 18 54 48 9 12 12 358 11 39 54 51 45 43
355 355 354 354 353 353 354 352 351 351 353 355 357 357 357 358 357 356 356 359 5 2 1 13 59 75 83 89 101 124 82 57 1 332 334 334 332 344 353 356 359 357 345 323 328 334 332 327 326 338 293 275 316 308 344 334 234 245 285 84 76 32 43 354 295 268 277 290 298 314 313 294 302 355 68 70 67 24 2 40 27 19 46 57 57 51 49 44
352 352 352 351 351 351 351 350 350 350 351 353 355 355 355 356 356 354 354 358 3 359 359 14 45 103 110 111 228 107 80 31 339 333 339 342 340 355 3 359 359 1 350 344 350 335 324 331 345 338 284 329 41 296 338 315 233 207 301 40 74 208 119 199 247 272 283 297 309 308 295 292 19 344 130 85 57 8 9 56 48 51 66 61 57 54 49 42
350 350 350 349 349 348 348 349 349 348 350 352 354 355 352 354 355 352 353 357 0 359 1 15 13 221 209 254 269 255 76 343 331 341 349 353 352 5 10 6 2 354 333 349 348 322 317 340 1 349 306 15 347 303 339 307 225 159 309 334 306 268 127 186 209 266 288 322 320 301 299 349 106 208 133 84 36 7 22 68 69 72 74 62 60 53 46 43
348 349 348 347 346 346 347 347 348 347 348 350 352 353 350 351 352 349 352 354 358 1 8 30 29 56 201 231 256 248 91 343 340 351 355 358 358 9 14 16 15 358 333 341 346 337 337 335 343 353 304 251 255 280 220 272 346 342 304 300 281 248 125 165 147 127 138 21 328 302 306 331 152 203 147 75 26 12 42 81 81 79 75 66 62 53 46 44
346 347 347 345 344 345 346 346 347 346 347 348 349 352 350 348 348 348 350 352 358 2 12 62 61 59 273 243 254 144 97 349 345 354 358 1 355 6 17 20 21 3 341 331 351 351 324 313 305 264 290 233 261 245 194 247 327 314 308 302 270 153 132 155 138 153 160 39 324 304 303 296 184 184 101 58 19 14 61 89 84 80 74 67 61 53 47 41
343 345 345 343 342 343 345 345 346 345 345 346 346 350 348 345 345 346 347 349 356 360 3 88 82 41 334 264 49 67 103 355 350 355 356 360 353 1 18 18 15 7 347 328 350 351 303 309 272 257 312 335 289 268 171 143 288 286 293 303 259 133 139 154 135 167 168 10 317 306 303 256 160 134 66 37 13 19 77 91 81 78 71 65 59 52 47 39
341 342 342 341 340 342 344 344 344 344 344 344 345 348 346 342 341 342 344 346 353 360 353 297 258 282 304 38 76 37 309 340 351 354 352 358 348 336 359 3 1 360 350 327 336 325 289 296 271 273 315 290 293 338 146 185 250 246 208 273 250 138 151 154 124 162 161 2 303 311 319 269 125 127 99 13 12 42 88 87 78 78 71 62 54 49 46 38
338 339 340 339 339 341 343 344 343 343 343 344 343 344 345 339 336 338 339 343 351 357 349 330 235 219 276 80 96 274 343 345 357 350 344 356 345 318 344 353 344 329 332 317 313 304 285 287 275 274 273 274 303 332 245 200 199 204 166 203 221 104 146 140 113 153 169 313 305 322 318 305 346 80 6 351 35 92 94 86 82 79 68 59 50 43 40 35
336 337 338 337 337 339 342 343 343 343 342 343 342 342 342 335 330 333 334 341 351 358 4 21 114 226 249 128 182 296 7 360 1 348 344 357 350 326 340 339 323 310 313 290 281 284 271 265 263 275 269 236 266 281 271 222 186 194 191 207 26 359 96 123 107 73 37 1 350 345 319 302 329 343 345 16 88 103 97 90 86 77 65 54 46 39 32 30
336 336 337 337 337 338 342 343 342 342 341 342 341 340 338 330 325 327 327 344 350 0 57 75 115 306 273 138 151 211 22 4 349 347 345 353 348 327 328 320 296 290 287 269 266 255 249 252 251 294 287 245 270 292 300 284 200 180 359 328 324 316 314 97 114 80 47 14 355 345 301 301 323 343 25 88 104 103 102 97 88 75 60 49 41 36 26 20
337 336 337 336 335 338 341 342 343 342 342 342 341 340 337 326 322 321 327 350 351 41 104 66 62 292 259 99 142 161 15 336 338 347 341 344 342 321 325 311 288 289 264 241 246 244 238 237 228 278 247 248 321 323 309 309 282 304 347 325 302 300 304 293 148 101 65 18 334 293 265 296 322 354 71 101 104 106 106 99 90 71 56 50 40 32 21 14
337 336 337 336 335 338 341 342 343 343 342 342 344 341 337 330 323 313 344 352 344 175 126 72 59 257 172 74 134 23 352 296 311 341 338 339 337 318 318 298 293 299 268 238 223 262 293 232 225 267 258 284 353 348 316 327 330 307 317 312 299 298 287 280 277 92 66 358 312 289 288 304 323 359 89 97 100 108 103 98 90 66 55 46 35 28 18 11
336 335 337 336 336 338 341 342 344 344 343 345 349 345 339 341 325 266 16 355 342 208 299 360 336 279 283 32 2 339 330 285 296 327 336 339 338 316 293 271 268 270 279 290 326 336 333 291 253 272 306 344 356 354 323 327 325 301 298 288 284 290 281 280 306 79 58 335 289 316 313 309 319 344 106 101 102 107 104 102 84 63 61 42 32 25 15 8
335 335 336 337 337 339 342 343 343 347 348 351 356 352 345 351 329 227 4 350 17 35 298 288 302 266 271 11 346 331 315 251 268 304 346 344 338 315 274 255 252 246 274 332 331 345 357 298 285 315 343 345 342 336 322 313 302 290 284 278 281 288 289 301 327 91 67 346 286 314 314 308 314 1 116 111 109 107 104 100 77 67 61 36 28 19 10 5
334 333 335 337 337 340 343 343 345 349 351 359 9 14 11 5 340 332 343 324 108 79 268 260 303 270 287 342 326 337 319 219 229 245 357 350 326 300 286 278 284 288 352 339 295 253 254 290 324 46 0 343 329 315 309 295 287 284 280 286 293 292 307 324 334 102 58 343 299 321 318 307 311 114 123 118 108 101 96 90 74 61 47 31 22 13 7 2
333 331 335 337 337 340 343 344 346 348 352 8 30 52 69 45 320 271 303 291 222 148 205 216 238 246 253 237 314 341 287 235 218 174 360 345 299 307 342 317 305 318 339 318 293 294 294 307 53 45 8 322 284 280 287 284 282 284 284 292 294 316 338 331 105 73 350 314 308 339 320 311 31 123 128 118 106 96 92 85 75 56 37 24 17 11 3 359
331 331 334 336 338 339 343 346 346 350 2 21 49 64 64 176 177 157 238 284 282 169 171 215 223 195 162 149 38 326 269 272 234 85 7 341 307 347 324 316 320 316 313 313 330 320 302 346 55 38 25 281 273 263 280 288 286 281 282 291 294 339 352 315 73 345 325 310 327 322 306 321 110 126 123 116 112 105 105 98 91 65 36 23 15 11 1 359
330 331 333 336 338 338 342 344 347 1 12 33 58 58 26 187 143 92 276 271 277 187 127 201 274 296 150 108 40 296 288 323 304 25 12 350 333 328 312 335 326 307 312 347 330 289 281 342 50 68 187 304 294 285 293 302 301 290 275 291 306 340 334 305 313 321 313 141 64 341 310 298 147 156 140 128 125 113 112 105 96 67 40 27 13 10 2 358
328 330 334 335 336 340 340 338 356 8 11 36 33 30 28 133 142 106 316 267 262 239 138 170 194 234 129 102 38 342 327 276 28 15 15 1 337 316 318 16 303 307 334 360 309 282 278 354 50 221 243 298 298 297 320 349 300 299 40 25 341 334 316 310 318 325 315 244 67 30 328 290 183 179 160 150 147 125 115 94 72 35 28 20 8 6 358 352
327 330 335 335 337 340 338 333 1 356 6 78 354 347 9 98 159 147 326 268 254 193 133 173 185 159 147 133 57 50 277 208 80 35 26 9 324 288 312 315 203 310 336 345 304 287 274 66 149 254 285 293 293 290 342 35 300 303 39 14 342 321 308 313 319 327 316 294 342 23 295 283 267 211 169 160 160 134 113 79 50 25 18 11 3 358 352 352
326 332 335 335 341 344 343 326 332 347 6 326 333 330 343 117 158 158 302 268 250 157 117 172 274 173 136 57 22 222 282 142 116 91 51 2 320 238 287 300 268 286 1 336 300 280 143 163 200 269 298 288 290 291 53 21 291 311 21 352 333 321 307 309 310 302 299 303 304 269 235 258 280 231 160 160 165 145 103 55 36 19 10 3 0 356 352 352
324 333 336 338 343 349 1 313 316 345 301 295 324 334 360 120 153 179 293 284 266 117 103 113 91 132 123 62 231 244 333 87 215 141 85 329 323 222 258 290 298 300 80 268 286 341 69 356 15 338 308 292 299 12 51 7 265 333 9 336 306 300 288 288 290 291 304 307 292 257 207 237 274 183 149 175 193 180 45 33 21 9 5 0 357 353 351 351
324 334 337 337 339 345 357 301 293 279 262 287 316 357 84 122 166 245 275 281 219 123 66 104 127 148 156 192 214 225 248 205 271 26 153 237 347 312 273 311 311 295 249 238 263 286 36 35 20 340 292 297 14 67 44 1 281 326 333 300 278 266 260 266 275 296 309 289 275 254 198 225 278 199 164 197 215 251 4 16 10 3 0 357 354 352 350 348
322 334 337 337 339 337 319 292 256 239 260 274 8 91 110 141 241 264 238 254 275 101 89 159 172 150 213 243 217 194 208 214 182 108 198 198 163 204 237 339 284 273 256 237 250 260 74 81 34 292 296 321 48 89 47 334 299 307 299 288 290 276 268 270 270 296 299 273 271 222 187 240 276 246 168 172 165 57 11 359 359 356 352 352 353 351 347 342
319 332 334 332 331 312 301 275 225 224 241 220 117 114 147 218 238 251 245 259 333 152 148 175 170 148 229 259 244 187 209 213 163 214 235 185 202 214 200 225 238 261 250 235 234 229 179 187 182 108 320 318 159 211 209 220 263 284 281 302 313 301 295 281 256 213 248 268 86 111 115 261 251 258 96 125 122 74 33 2 356 351 348 350 350 346 340 334
315 325 324 320 312 271 260 249 236 244 215 171 128 153 244 260 222 231 227 112 223 194 170 151 110 192 206 253 261 234 250 229 178 210 257 184 244 247 238 250 290 299 270 267 259 223 202 187 138 102 174 204 229 242 207 200 235 263 279 325 325 311 312 284 257 241 251 264 119 112 47 276 252 261 150 142 132 93 51 16 1 352 347 347 344 338 333 332
308 318 314 306 293 253 246 245 243 238 199 157 160 227 251 255 239 228 201 199 316 114 112 72 106 148 156 251 253 213 146 240 197 176 192 169 247 250 219 203 205 273 275 300 311 277 256 140 138 154 161 169 237 248 237 208 191 300 307 336 316 310 316 294 291 288 269 256 123 38 343 292 266 254 149 142 128 95 41 16 2 352 346 341 337 332 330 332
301 310 306 297 281 252 240 237 230 215 181 151 208 231 220 233 248 311 217 222 309 80 112 85 128 185 207 235 250 161 218 240 176 165 203 182 220 239 222 194 190 221 259 279 290 275 265 258 164 174 164 164 209 242 322 328 68 55 47 359 280 260 270 279 304 307 294 297 287 285 288 270 288 126 132 129 123 102 22 7 357 348 341 335 332 329 330 331
294 301 299 291 276 254 235 228 215 192 175 185 226 221 217 233 242 253 247 237 124 188 157 132 205 245 241 231 198 159 238 247 134 179 220 204 231 252 237 191 185 196 218 243 276 256 248 252 127 119 328 241 184 105 2 307 162 135 102 126 231 243 251 266 291 291 299 303 286 232 223 255 348 120 136 131 134 108 4 359 349 342 336 333 332 329 330 331
289 299 295 280 266 249 226 218 202 179 185 218 224 223 225 235 235 219 214 162 167 181 302 244 214 240 263 236 185 174 207 228 171 213 225 214 239 245 216 157 174 191 200 226 263 242 255 253 125 136 31 73 39 333 146 283 245 159 163 208 123 64 313 268 281 281 271 286 268 198 240 263 160 151 160 152 144 356 355 352 343 337 334 334 332 330 330 330
268 282 282 258 249 239 214 206 189 176 202 222 223 230 231 233 236 233 165 116 221 96 300 274 212 214 263 260 219 177 166 210 185 200 242 207 229 216 183 155 174 192 200 244 261 206 267 269 160 169 179 104 336 298 157 299 316 191 196 171 119 83 85 230 271 286 253 272 264 227 257 267 268 243 171 167 315 346 345 344 338 333 334 333 330 329 329 328
238 264 266 240 238 228 203 192 179 181 213 221 231 239 235 227 224 214 158 128 155 178 221 253 220 196 244 263 255 158 152 208 173 184 244 218 203 180 169 171 179 184 161 93 258 201 276 266 201 173 181 137 234 258 184 159 22 47 134 137 149 263 228 186 217 273 267 274 279 269 270 262 259 254 153 177 329 345 338 339 335 331 334 332 330 329 328 329
205 251 252 212 213 205 188 179 171 196 216 214 231 239 229 228 220 185 161 168 187 189 222 245 231 225 234 242 255 152 163 218 209 200 230 215 206 168 163 173 169 167 143 135 206 216 167 246 238 94 50 128 195 230 211 185 123 91 99 157 181 260 251 231 217 249 264 272 285 286 290 276 240 155 117 339 342 342 335 337 332 329 332 331 331 329 328 331
189 231 228 175 180 180 170 167 178 204 216 218 230 231 195 224 220 183 181 197 204 208 234 243 227 235 245 236 242 219 204 224 226 230 222 206 231 190 170 168 154 152 140 131 204 182 171 225 238 111 53 203 203 211 219 207 166 164 192 198 194 192 220 261 248 185 232 261 275 283 287 282 132 109 55 335 343 337 336 336 328 326 330 330 331 329 328 332
189 234 204 166 171 163 152 167 201 200 219 228 233 235 215 221 216 187 189 205 218 223 241 253 237 240 250 242 239 227 222 233 224 228 230 215 229 218 174 162 153 144 130 137 199 192 179 212 228 207 206 218 217 48 348 312 241 199 207 208 211 198 179 227 244 188 164 244 248 264 279 274 158 130 328 332 333 334 336 332 325 324 327 329 330 328 329 329
203 225 164 157 170 165 163 202 200 190 231 227 230 242 218 212 216 191 182 185 223 231 236 257 244 242 245 246 248 230 222 246 224 210 232 226 223 230 165 153 151 145 138 140 170 173 100 232 237 234 217 216 258 28 360 318 305 269 247 227 217 202 184 205 234 204 172 236 236 253 272 272 140 143 220 222 305 331 336 328 324 323 325 328 328 326 327 325
209 199 126 156 173 173 194 227 194 203 237 223 248 247 208 205 218 195 183 180 204 220 217 233 229 227 233 231 240 238 225 239 228 211 228 230 217 15 101 148 146 143 142 130 129 121 61 128 222 243 248 149 130 122 356 319 262 256 243 214 204 204 199 211 239 281 277 241 226 239 257 254 114 143 200 255 316 329 332 327 326 323 324 328 327 325 324 323
205 181 111 167 181 185 213 226 205 218 229 222 244 238 217 229 221 203 193 189 194 200 215 232 218 217 230 218 223 233 215 212 229 218 222 220 178 49 75 140 145 154 156 164 157 160 179 173 172 221 252 235 199 207 210 193 199 225 224 199 198 210 211 218 248 288 267 236 218 228 252 257 137 159 241 306 320 323 324 326 327 324 322 326 327 324 323 322
180 181 108 167 187 201 227 244 236 239 231 226 239 235 226 237 216 208 212 210 207 204 210 232 213 212 222 204 222 235 212 216 234 216 198 195 141 62 15 35 40 142 115 28 88 162 196 199 180 199 232 238 233 240 217 188 190 210 216 204 202 209 208 202 206 223 234 234 221 225 250 265 262 263 286 304 311 315 321 324 322 321 322 325 325 322 321 321
180 203 156 149 194 221 243 275 260 252 242 234 247 240 228 231 217 199 213 225 221 209 209 228 200 211 212 191 224 241 219 219 230 225 202 179 137 73 60 35 18 68 87 49 50 151 213 232 221 224 237 245 259 299 99 152 188 203 205 206 208 209 205 198 211 225 232 252 246 236 248 267 273 278 287 299 309 314 320 321 318 321 322 323 325 323 320 319
209 213 173 151 189 223 231 247 238 239 242 234 246 249 231 232 230 200 202 219 219 206 215 230 198 199 200 190 217 244 222 207 212 230 220 157 108 60 75 65 35 60 92 70 77 139 203 235 230 233 245 255 273 293 196 178 224 230 217 216 215 209 200 204 222 225 221 247 256 246 247 261 271 277 286 299 311 316 322 320 317 320 322 321 324 323 319 320
207 217 167 168 196 213 209 215 215 225 235 233 239 253 246 237 233 216 195 187 210 199 204 232 219 210 208 196 204 238 224 191 207 222 198 130 126 127 108 88 207 186 164 172 202 181 222 246 230 231 249 255 262 269 247 230 249 245 235 234 228 216 205 209 224 227 221 235 255 268 267 267 273 280 290 301 311 319 321 317 314 317 318 319 321 320 318 323
201 246 205 188 221 227 207 189 190 212 228 228 232 241 241 237 234 226 183 137 216 211 204 229 226 206 210 212 211 229 220 190 219 220 172 147 164 153 152 211 197 183 175 181 207 203 229 255 225 229 255 258 251 257 258 258 261 256 247 241 236 229 220 218 226 229 231 242 254 268 270 270 274 279 287 301 316 321 317 312 313 315 317 319 320 318 317 321
188 187 185 203 248 241 228 191 180 203 221 219 226 231 227 230 233 229 182 172 209 206 200 225 230 197 205 216 216 229 227 213 226 218 155 158 178 166 187 197 153 162 181 187 202 224 226 218 158 216 262 261 247 247 252 257 261 263 257 245 238 237 233 231 232 229 234 245 252 260 264 267 270 274 287 309 320 316 313 312 314 315 317 318 315 315 316 317
212 208 185 206 241 218 219 209 188 208 225 218 221 221 216 227 229 227 215 207 214 203 185 213 229 218 216 222 223 233 234 213 208 178 155 169 181 174 187 172 142 158 180 188 182 196 215 205 114 146 259 266 251 238 246 261 272 268 261 247 235 234 232 232 232 227 227 236 246 253 256 260 269 279 297 313 311 309 312 314 312 311 313 311 308 311 316 315
212 228 202 217 248 217 212 219 211 221 233 218 209 210 218 229 222 216 230 226 218 216 199 200 214 219 226 230 228 230 211 124 109 112 139 151 134 168 188 175 163 163 167 181 182 176 192 200 158 161 236 284 272 213 252 289 289 272 255 229 225 229 230 232 232 230 227 228 238 247 248 258 279 293 298 301 303 308 312 310 307 307 307 303 303 312 315 314